PNY245 EPOK-EPOK

Flight info

Callsign PNY245
Flight time 0h 1m
Altitude 1500
Route EPOKR
Aircraft MI2/M-DGV/C

Departure

Time 2026-04-25 12:29
Airport Oksywie Air Base / Gdynia-Kosakowo Airfield (EPOK)

Arrival

Time 2026-04-25 12:30
Airport Oksywie Air Base / Gdynia-Kosakowo Airfield (EPOK)
Time Latitude Longitude Altitude Speed Heading
2026-04-25 12:06 54.58765 18.52597 147 ft 0 kts
2026-04-25 12:14 54.58767 18.52609 153 ft 6 kts 306°
2026-04-25 12:14 54.58760 18.52580 164 ft 5 kts 268°
2026-04-25 12:14 54.58731 18.52525 169 ft 18 kts 262°
2026-04-25 12:15 54.58719 18.52083 198 ft 47 kts 265°
2026-04-25 12:15 54.58714 18.51462 253 ft 54 kts 274°
2026-04-25 12:15 54.59046 18.51135 392 ft 72 kts 349°
2026-04-25 12:15 54.59595 18.51126 388 ft 81 kts 336°
2026-04-25 12:16 54.60153 18.50897 442 ft 85 kts 332°
2026-04-25 12:16 54.60829 18.50794 308 ft 108 kts 344°
2026-04-25 12:16 54.61571 18.50793 298 ft 94 kts 345°
2026-04-25 12:16 54.62271 18.50791 107 ft 113 kts 344°
2026-04-25 12:17 54.62546 18.50344 223 ft 75 kts 198°
2026-04-25 12:17 54.61987 18.50988 117 ft 110 kts 155°
2026-04-25 12:17 54.61586 18.50708 153 ft 76 kts 292°
2026-04-25 12:17 54.62191 18.50609 127 ft 106 kts 359°
2026-04-25 12:18 54.62839 18.50869 241 ft 51 kts 276°
2026-04-25 12:18 54.62774 18.50656 338 ft 16 kts 225°
2026-04-25 12:18 54.62715 18.50634 316 ft 6 kts 232°
2026-04-25 12:18 54.62586 18.50656 184 ft 47 kts 190°
2026-04-25 12:19 54.62491 18.50772 102 ft 51 kts 43°
2026-04-25 12:19 54.62595 18.51113 66 ft 4 kts 359°
2026-04-25 12:19 54.62622 18.51119 25 ft 6 kts 335°
2026-04-25 12:20 54.62630 18.51123 13 ft 0 kts 344°
2026-04-25 12:21 54.62701 18.51058 82 ft 35 kts 314°
2026-04-25 12:21 54.62641 18.50593 123 ft 78 kts 210°
2026-04-25 12:21 54.62027 18.50850 102 ft 97 kts 173°
2026-04-25 12:21 54.61727 18.50724 235 ft 15 kts 320°
2026-04-25 12:22 54.62047 18.50613 179 ft 78 kts 328°
2026-04-25 12:22 54.62457 18.50067 264 ft 78 kts 282°
2026-04-25 12:22 54.62516 18.49194 397 ft 72 kts 266°
2026-04-25 12:22 54.62449 18.48356 401 ft 62 kts 241°
2026-04-25 12:23 54.62073 18.48717 368 ft 114 kts 81°
2026-04-25 12:23 54.62407 18.49927 368 ft 123 kts 31°
2026-04-25 12:23 54.63025 18.50974 473 ft 120 kts 27°
2026-04-25 12:23 54.63733 18.51627 530 ft 110 kts 359°
2026-04-25 12:24 54.64478 18.52006 587 ft 125 kts 19°
2026-04-25 12:24 54.64978 18.53299 533 ft 140 kts 84°
2026-04-25 12:24 54.64979 18.55012 380 ft 147 kts 96°
2026-04-25 12:24 54.64844 18.56767 271 ft 144 kts 104°
2026-04-25 12:25 54.64707 18.58414 295 ft 135 kts 103°
2026-04-25 12:25 54.64531 18.59986 281 ft 132 kts 108°
2026-04-25 12:25 54.64300 18.61498 252 ft 131 kts 109°
2026-04-25 12:25 54.64034 18.63019 386 ft 130 kts 116°
2026-04-25 12:26 54.63703 18.64503 353 ft 137 kts 122°
2026-04-25 12:26 54.63343 18.65965 343 ft 134 kts 121°
2026-04-25 12:26 54.62990 18.67411 393 ft 129 kts 115°
2026-04-25 12:26 54.62653 18.68865 399 ft 129 kts 115°
2026-04-25 12:27 54.62298 18.70290 394 ft 131 kts 122°
2026-04-25 12:27 54.61903 18.71699 435 ft 128 kts 123°
2026-04-25 12:27 54.61545 18.73113 463 ft 129 kts 115°
2026-04-25 12:27 54.61188 18.74598 409 ft 131 kts 117°
2026-04-25 12:28 54.60869 18.76043 517 ft 129 kts 110°
2026-04-25 12:28 54.60610 18.77492 611 ft 125 kts 119°
2026-04-25 12:28 54.60184 18.78785 670 ft 127 kts 131°
2026-04-25 12:28 54.60051 18.80239 681 ft 123 kts 46°
2026-04-25 12:29 54.60708 18.80610 819 ft 97 kts 319°
2026-04-25 12:29 54.61209 18.79922 924 ft 89 kts 302°
2026-04-25 12:29 54.61571 18.79143 855 ft 72 kts 302°
2026-04-25 12:29 54.61754 18.78460 820 ft 57 kts 278°
2026-04-25 12:30 54.61710 18.77987 627 ft 25 kts 231°
2026-04-25 12:30 54.61575 18.77955 351 ft 11 kts 231°
2026-04-25 12:30 54.61499 18.77999 148 ft 17 kts 25°
2026-04-25 12:30 54.61536 18.78001 50 ft 4 kts 249°
2026-04-25 12:31 54.61534 18.77987 10 ft 0 kts 204°
2026-04-25 12:32 54.61530 18.77985 14 ft 5 kts 206°
2026-04-25 12:32 54.61408 18.77935 189 ft 43 kts 210°
2026-04-25 12:33 54.61024 18.77504 353 ft 84 kts 218°
2026-04-25 12:33 54.60638 18.76874 676 ft 73 kts 236°
2026-04-25 12:33 54.60384 18.76054 803 ft 85 kts 248°
2026-04-25 12:33 54.60145 18.75133 844 ft 85 kts 253°
2026-04-25 12:34 54.59973 18.74195 874 ft 81 kts 257°
2026-04-25 12:34 54.59830 18.73231 868 ft 80 kts 260°
2026-04-25 12:34 54.59665 18.72291 845 ft 84 kts 256°
2026-04-25 12:34 54.59529 18.71659 815 ft 85 kts 255°
2026-04-25 12:35 54.59248 18.70391 769 ft 86 kts 256°
2026-04-25 12:35 54.59058 18.69456 763 ft 86 kts 255°
2026-04-25 12:35 54.58869 18.68503 756 ft 84 kts 259°
2026-04-25 12:35 54.58730 18.67530 727 ft 83 kts 268°
2026-04-25 12:36 54.58749 18.66545 691 ft 83 kts 275°
2026-04-25 12:36 54.58806 18.65542 657 ft 83 kts 278°
2026-04-25 12:36 54.58853 18.64554 626 ft 84 kts 275°
2026-04-25 12:36 54.58907 18.63562 563 ft 85 kts 275°
2026-04-25 12:37 54.58914 18.62562 521 ft 84 kts 274°
2026-04-25 12:37 54.58916 18.61546 451 ft 87 kts 274°
2026-04-25 12:37 54.58919 18.60496 404 ft 83 kts 271°
2026-04-25 12:37 54.58869 18.59549 436 ft 75 kts 265°
2026-04-25 12:38 54.58797 18.58649 430 ft 81 kts 271°
2026-04-25 12:38 54.58793 18.57746 421 ft 74 kts 276°
2026-04-25 12:38 54.58800 18.56859 418 ft 73 kts 272°
2026-04-25 12:38 54.58755 18.55989 401 ft 71 kts 272°
2026-04-25 12:39 54.58754 18.55116 353 ft 78 kts 273°
2026-04-25 12:39 54.58748 18.54223 325 ft 72 kts 274°
2026-04-25 12:39 54.58737 18.53419 244 ft 60 kts 272°
2026-04-25 12:39 54.58731 18.52906 222 ft 24 kts 271°
2026-04-25 12:40 54.58728 18.52665 176 ft 15 kts 284°
2026-04-25 12:40 54.58762 18.52601 152 ft 1 kts 323°
2026-04-25 12:40 54.58765 18.52600 149 ft 0 kts 290°